TimeEDT,TemperatureF,Dew PointF,Humidity,Sea Level PressureIn,VisibilityMPH,Wind Direction,Wind SpeedMPH,Gust SpeedMPH,PrecipitationIn,Events,Conditions,WindDirDegrees,DateUTC
12:15 AM,68.9,63.5,83,30.22,10.0,SSE,8.1,-,N/A,,Clear,160,2013-05-28 04:15:00
12:35 AM,68.7,63.5,83,30.23,10.0,SSE,5.8,-,N/A,,Clear,160,2013-05-28 04:35:00
12:55 AM,68.2,63.5,85,30.23,10.0,SSE,6.9,-,N/A,,Clear,160,2013-05-28 04:55:00
1:15 AM,67.6,63.5,87,30.23,10.0,SSE,6.9,-,N/A,,Clear,160,2013-05-28 05:15:00
1:35 AM,67.5,63.3,87,30.22,10.0,South,4.6,-,N/A,,Clear,170,2013-05-28 05:35:00
1:55 AM,66.7,63.1,88,30.22,10.0,South,4.6,-,N/A,,Clear,170,2013-05-28 05:55:00
2:15 AM,66.4,63.1,89,30.22,10.0,South,5.8,-,N/A,,Clear,170,2013-05-28 06:15:00
2:35 AM,66.2,63.1,90,30.22,10.0,SSE,5.8,-,N/A,,Clear,160,2013-05-28 06:35:00
2:55 AM,66.2,63.5,91,30.21,10.0,SSE,4.6,-,N/A,,Clear,160,2013-05-28 06:55:00
3:15 AM,66.0,63.1,90,30.20,10.0,South,5.8,-,N/A,,Clear,170,2013-05-28 07:15:00
3:35 AM,65.5,63.0,92,30.20,10.0,South,4.6,-,N/A,,Clear,170,2013-05-28 07:35:00
3:55 AM,65.3,63.0,92,30.20,10.0,South,5.8,-,N/A,,Clear,170,2013-05-28 07:55:00
4:15 AM,65.3,63.0,92,30.20,10.0,South,6.9,-,N/A,,Clear,170,2013-05-28 08:15:00
4:35 AM,64.8,62.8,93,30.20,10.0,South,4.6,-,N/A,,Clear,180,2013-05-28 08:35:00
4:55 AM,64.4,62.6,94,30.20,10.0,South,4.6,-,N/A,,Clear,170,2013-05-28 08:55:00
5:15 AM,64.4,62.8,94,30.20,10.0,South,5.8,-,N/A,,Clear,170,2013-05-28 09:15:00
5:35 AM,64.2,62.6,94,30.20,10.0,South,4.6,-,N/A,,Clear,170,2013-05-28 09:35:00
5:55 AM,63.9,62.6,96,30.21,10.0,Calm,Calm,-,N/A,,Clear,0,2013-05-28 09:55:00
6:15 AM,63.5,62.2,96,30.22,10.0,Calm,Calm,-,N/A,,Clear,0,2013-05-28 10:15:00
6:35 AM,63.7,62.6,96,30.23,10.0,SSE,3.5,-,N/A,,Clear,160,2013-05-28 10:35:00
6:55 AM,64.0,62.8,96,30.23,10.0,Calm,Calm,-,N/A,,Clear,0,2013-05-28 10:55:00
7:15 AM,64.9,63.3,94,30.23,10.0,South,3.5,-,N/A,,Clear,170,2013-05-28 11:15:00
7:35 AM,66.0,63.5,92,30.23,10.0,South,3.5,-,N/A,,Clear,190,2013-05-28 11:35:00
7:55 AM,67.3,63.9,89,30.24,10.0,South,4.6,-,N/A,,Clear,190,2013-05-28 11:55:00
8:15 AM,68.0,64.0,87,30.24,10.0,SSW,5.8,-,N/A,,Clear,210,2013-05-28 12:15:00
8:35 AM,69.6,64.2,83,30.25,10.0,SSW,5.8,-,N/A,,Clear,210,2013-05-28 12:35:00
8:55 AM,71.1,64.6,80,30.25,10.0,SW,4.6,-,N/A,,Clear,230,2013-05-28 12:55:00
9:15 AM,70.9,64.2,79,30.26,10.0,SW,6.9,-,N/A,,Clear,230,2013-05-28 13:15:00
9:35 AM,72.7,64.8,76,30.26,10.0,West,4.6,-,N/A,,Clear,260,2013-05-28 13:35:00
9:55 AM,72.9,64.6,75,30.26,10.0,West,5.8,-,N/A,,Clear,270,2013-05-28 13:55:00
10:15 AM,73.6,64.4,73,30.27,10.0,WSW,3.5,-,N/A,,Clear,240,2013-05-28 14:15:00
10:35 AM,75.2,64.4,69,30.27,10.0,Calm,Calm,-,N/A,,Clear,0,2013-05-28 14:35:00
10:55 AM,76.1,64.0,66,30.27,10.0,WSW,5.8,-,N/A,,Clear,240,2013-05-28 14:55:00
11:15 AM,76.6,64.4,66,30.26,10.0,SW,5.8,-,N/A,,Clear,230,2013-05-28 15:15:00
11:35 AM,78.1,63.5,61,30.26,10.0,SW,5.8,-,N/A,,Clear,220,2013-05-28 15:35:00
11:55 AM,78.8,62.8,58,30.27,10.0,West,5.8,-,N/A,,Clear,260,2013-05-28 15:55:00
12:15 PM,79.0,63.1,58,30.26,10.0,WSW,4.6,-,N/A,,Clear,240,2013-05-28 16:15:00
12:35 PM,79.2,63.3,58,30.26,10.0,SW,8.1,-,N/A,,Clear,230,2013-05-28 16:35:00
12:55 PM,81.0,62.8,54,30.25,10.0,SSE,5.8,-,N/A,,Clear,160,2013-05-28 16:55:00
1:15 PM,81.7,62.4,52,30.25,10.0,South,5.8,-,N/A,,Scattered Clouds,190,2013-05-28 17:15:00
1:35 PM,82.0,63.9,54,30.25,10.0,South,8.1,-,N/A,,Scattered Clouds,190,2013-05-28 17:35:00
1:55 PM,82.0,63.5,53,30.23,10.0,SSW,4.6,-,N/A,,Scattered Clouds,200,2013-05-28 17:55:00
2:15 PM,81.5,63.5,54,30.23,10.0,SSE,5.8,-,N/A,,Mostly Cloudy,160,2013-05-28 18:15:00
2:35 PM,83.7,63.3,50,30.22,10.0,SSE,11.5,-,N/A,,Mostly Cloudy,160,2013-05-28 18:35:00
2:55 PM,83.7,62.6,49,30.21,10.0,South,11.5,19.6,N/A,,Mostly Cloudy,170,2013-05-28 18:55:00
3:15 PM,84.9,62.4,47,30.20,10.0,SSE,9.2,17.3,N/A,,Scattered Clouds,160,2013-05-28 19:15:00
3:35 PM,84.9,62.4,47,30.19,10.0,South,8.1,-,N/A,,Scattered Clouds,180,2013-05-28 19:35:00
3:55 PM,84.7,61.7,46,30.19,10.0,SSW,9.2,17.3,N/A,,Scattered Clouds,200,2013-05-28 19:55:00
4:15 PM,84.9,61.3,45,30.18,10.0,South,11.5,-,N/A,,Scattered Clouds,190,2013-05-28 20:15:00
4:35 PM,84.9,61.0,44,30.18,10.0,SSW,9.2,-,N/A,,Clear,200,2013-05-28 20:35:00
4:55 PM,85.8,61.3,44,30.17,10.0,SSW,9.2,-,N/A,,Scattered Clouds,200,2013-05-28 20:55:00
5:15 PM,85.3,61.7,45,30.17,10.0,South,12.7,-,N/A,,Scattered Clouds,170,2013-05-28 21:15:00
5:35 PM,85.3,61.9,45,30.17,10.0,South,9.2,-,N/A,,Scattered Clouds,170,2013-05-28 21:35:00
5:55 PM,84.7,61.7,46,30.17,10.0,SSW,9.2,-,N/A,,Scattered Clouds,200,2013-05-28 21:55:00
6:15 PM,84.2,62.2,47,30.17,10.0,SSE,9.2,-,N/A,,Scattered Clouds,160,2013-05-28 22:15:00
6:35 PM,84.2,62.1,47,30.16,10.0,SSE,10.4,-,N/A,,Scattered Clouds,150,2013-05-28 22:35:00
6:55 PM,83.5,63.9,51,30.16,10.0,South,10.4,-,N/A,,Scattered Clouds,170,2013-05-28 22:55:00
7:15 PM,82.4,64.4,54,30.17,10.0,South,9.2,-,N/A,,Scattered Clouds,170,2013-05-28 23:15:00
7:35 PM,81.7,64.9,57,30.17,10.0,SSE,9.2,-,N/A,,Scattered Clouds,160,2013-05-28 23:35:00
7:55 PM,80.6,64.6,58,30.18,10.0,South,9.2,-,N/A,,Scattered Clouds,170,2013-05-28 23:55:00
8:15 PM,79.2,64.6,61,30.18,10.0,South,8.1,-,N/A,,Clear,170,2013-05-29 00:15:00
8:35 PM,78.3,64.4,62,30.18,10.0,SSE,10.4,-,N/A,,Clear,160,2013-05-29 00:35:00
8:55 PM,77.4,64.0,63,30.18,10.0,South,10.4,17.3,N/A,,Clear,170,2013-05-29 00:55:00
9:15 PM,76.6,63.9,65,30.19,10.0,SSE,10.4,-,N/A,,Clear,160,2013-05-29 01:15:00
9:35 PM,76.1,63.5,65,30.20,10.0,SSE,9.2,-,N/A,,Clear,160,2013-05-29 01:35:00
9:55 PM,75.0,63.3,67,30.20,10.0,South,10.4,-,N/A,,Clear,170,2013-05-29 01:55:00
10:15 PM,74.8,62.6,66,30.20,10.0,South,11.5,-,N/A,,Clear,170,2013-05-29 02:15:00
10:35 PM,73.9,62.6,68,30.21,10.0,SSE,9.2,-,N/A,,Clear,160,2013-05-29 02:35:00
10:55 PM,73.0,62.6,70,30.21,10.0,South,8.1,-,N/A,,Clear,170,2013-05-29 02:55:00
11:15 PM,72.3,62.6,71,30.21,10.0,South,9.2,-,N/A,,Clear,170,2013-05-29 03:15:00
11:35 PM,71.6,62.8,74,30.21,10.0,South,9.2,-,N/A,,Clear,170,2013-05-29 03:35:00
11:55 PM,70.9,63.0,76,30.21,10.0,South,6.9,-,N/A,,Clear,180,2013-05-29 03:55:00